Year,Month,Day,Hour,Minute,Value (Times are PST for temperature in C)
2011,09,12,00,00,15.00
2011,09,12,00,01,15.00
2011,09,12,00,02,15.00
2011,09,12,00,03,15.00
2011,09,12,00,04,14.90
2011,09,12,00,05,14.90
2011,09,12,00,06,14.80
2011,09,12,00,07,14.80
2011,09,12,00,08,14.80
2011,09,12,00,09,14.70
2011,09,12,00,10,14.70
2011,09,12,00,11,14.70
2011,09,12,00,12,14.70
2011,09,12,00,13,14.70
2011,09,12,00,14,14.60
2011,09,12,00,15,14.60
2011,09,12,00,16,14.60
2011,09,12,00,17,14.60
2011,09,12,00,18,14.50
2011,09,12,00,19,14.50
2011,09,12,00,20,14.50
2011,09,12,00,21,14.50
2011,09,12,00,22,14.40
2011,09,12,00,23,14.40
2011,09,12,00,24,14.40
2011,09,12,00,25,14.40
2011,09,12,00,26,14.30
2011,09,12,00,27,14.30
2011,09,12,00,28,14.30
2011,09,12,00,29,14.30
2011,09,12,00,30,14.30
2011,09,12,00,31,14.30
2011,09,12,00,32,14.30
2011,09,12,00,33,14.30
2011,09,12,00,34,14.30
2011,09,12,00,35,14.30
2011,09,12,00,36,14.30
2011,09,12,00,37,14.30
2011,09,12,00,38,14.30
2011,09,12,00,39,14.30
2011,09,12,00,40,14.20
2011,09,12,00,41,14.20
2011,09,12,00,42,14.20
2011,09,12,00,43,14.20
2011,09,12,00,44,14.20
2011,09,12,00,45,14.20
2011,09,12,00,46,14.20
2011,09,12,00,47,14.20
2011,09,12,00,48,14.20
2011,09,12,00,49,14.20
2011,09,12,00,50,14.20
2011,09,12,00,51,14.20
2011,09,12,00,52,14.20
2011,09,12,00,53,14.20
2011,09,12,00,54,14.20
2011,09,12,00,55,14.20
2011,09,12,00,56,14.20
2011,09,12,00,57,14.20
2011,09,12,00,58,14.10
2011,09,12,00,59,14.10
2011,09,12,01,00,14.10
2011,09,12,01,01,14.10
2011,09,12,01,02,14.10
2011,09,12,01,03,14.10
2011,09,12,01,04,14.10
2011,09,12,01,05,14.00
2011,09,12,01,06,14.00
2011,09,12,01,07,14.00
2011,09,12,01,08,14.00
2011,09,12,01,09,14.00
2011,09,12,01,10,13.90
2011,09,12,01,11,13.90
2011,09,12,01,12,13.90
2011,09,12,01,13,13.90
2011,09,12,01,14,13.90
2011,09,12,01,15,13.90
2011,09,12,01,16,13.80
2011,09,12,01,17,13.80
2011,09,12,01,18,13.80
2011,09,12,01,19,13.80
2011,09,12,01,20,13.80
2011,09,12,01,21,13.70
2011,09,12,01,22,13.70
2011,09,12,01,23,13.70
2011,09,12,01,24,13.70
2011,09,12,01,25,13.70
2011,09,12,01,26,13.70
2011,09,12,01,27,13.70
2011,09,12,01,28,13.70
2011,09,12,01,29,13.70
2011,09,12,01,30,13.60
2011,09,12,01,31,13.60
2011,09,12,01,32,13.60
2011,09,12,01,33,13.60
2011,09,12,01,34,13.60
2011,09,12,01,35,13.50
2011,09,12,01,36,13.60
2011,09,12,01,37,13.50
2011,09,12,01,38,13.50
2011,09,12,01,39,13.50
2011,09,12,01,40,13.40
2011,09,12,01,41,13.40
2011,09,12,01,42,13.40
2011,09,12,01,43,13.40
2011,09,12,01,44,13.40
2011,09,12,01,45,13.40
2011,09,12,01,46,13.40
2011,09,12,01,47,13.40
2011,09,12,01,48,13.40
2011,09,12,01,49,13.40
2011,09,12,01,50,13.40
2011,09,12,01,51,13.30
2011,09,12,01,52,13.30
2011,09,12,01,53,13.30
2011,09,12,01,54,13.30
2011,09,12,01,55,13.30
2011,09,12,01,56,13.30
2011,09,12,01,57,13.30
2011,09,12,01,58,13.30
2011,09,12,01,59,13.30
2011,09,12,02,00,13.30
2011,09,12,02,01,13.30
2011,09,12,02,02,13.30
2011,09,12,02,03,13.30
2011,09,12,02,04,13.30
2011,09,12,02,05,13.20
2011,09,12,02,06,13.20
2011,09,12,02,07,13.20
2011,09,12,02,08,13.20
2011,09,12,02,09,13.20
2011,09,12,02,10,13.20
2011,09,12,02,11,13.20
2011,09,12,02,12,13.20
2011,09,12,02,13,13.20
2011,09,12,02,14,13.10
2011,09,12,02,15,13.10
2011,09,12,02,16,13.10
2011,09,12,02,17,13.10
2011,09,12,02,18,13.10
2011,09,12,02,19,13.10
2011,09,12,02,20,13.10
2011,09,12,02,21,13.00
2011,09,12,02,22,13.00
2011,09,12,02,23,13.00
2011,09,12,02,24,13.00
2011,09,12,02,25,12.90
2011,09,12,02,26,12.90
2011,09,12,02,27,12.90
2011,09,12,02,28,12.90
2011,09,12,02,29,12.90
2011,09,12,02,30,12.80
2011,09,12,02,31,12.80
2011,09,12,02,32,12.80
2011,09,12,02,33,12.80
2011,09,12,02,34,12.80
2011,09,12,02,35,12.80
2011,09,12,02,36,12.70
2011,09,12,02,37,12.70
2011,09,12,02,38,12.70
2011,09,12,02,39,12.70
2011,09,12,02,40,12.70
2011,09,12,02,41,12.60
2011,09,12,02,42,12.60
2011,09,12,02,43,12.60
2011,09,12,02,44,12.60
2011,09,12,02,45,12.60
2011,09,12,02,46,12.60
2011,09,12,02,47,12.60
2011,09,12,02,48,12.60
2011,09,12,02,49,12.60
2011,09,12,02,50,12.60
2011,09,12,02,51,12.60
2011,09,12,02,52,12.60
2011,09,12,02,53,12.60
2011,09,12,02,54,12.60
2011,09,12,02,55,12.60
2011,09,12,02,56,12.50
2011,09,12,02,57,12.50
2011,09,12,02,58,12.50
2011,09,12,02,59,12.50
2011,09,12,03,00,12.50
2011,09,12,03,01,12.50
2011,09,12,03,02,12.50
2011,09,12,03,03,12.50
2011,09,12,03,04,12.50
2011,09,12,03,05,12.50
2011,09,12,03,06,12.50
2011,09,12,03,07,12.50
2011,09,12,03,08,12.40
2011,09,12,03,09,12.40
2011,09,12,03,10,12.40
2011,09,12,03,11,12.40
2011,09,12,03,12,12.40
2011,09,12,03,13,12.40
2011,09,12,03,14,12.40
2011,09,12,03,15,12.40
2011,09,12,03,16,12.40
2011,09,12,03,17,12.40
2011,09,12,03,18,12.40
2011,09,12,03,19,12.40
2011,09,12,03,20,12.40
2011,09,12,03,21,12.40
2011,09,12,03,22,12.40
2011,09,12,03,23,12.40
2011,09,12,03,24,12.40
2011,09,12,03,25,12.40
2011,09,12,03,26,12.40
2011,09,12,03,27,12.40
2011,09,12,03,28,12.40
2011,09,12,03,29,12.40
2011,09,12,03,30,12.40
2011,09,12,03,31,12.40
2011,09,12,03,32,12.40
2011,09,12,03,33,12.30
2011,09,12,03,34,12.40
2011,09,12,03,35,12.30
2011,09,12,03,36,12.30
2011,09,12,03,37,12.30
2011,09,12,03,38,12.30
2011,09,12,03,39,12.30
2011,09,12,03,40,12.30
2011,09,12,03,41,12.30
2011,09,12,03,42,12.30
2011,09,12,03,43,12.30
2011,09,12,03,44,12.20
2011,09,12,03,45,12.20
2011,09,12,03,46,12.20
2011,09,12,03,47,12.10
2011,09,12,03,48,12.10
2011,09,12,03,49,12.10
2011,09,12,03,50,12.20
2011,09,12,03,51,12.10
2011,09,12,03,52,12.10
2011,09,12,03,53,12.10
2011,09,12,03,54,12.10
2011,09,12,03,55,12.10
2011,09,12,03,56,12.10
2011,09,12,03,57,12.10
2011,09,12,03,58,12.10
2011,09,12,03,59,12.00
2011,09,12,04,00,12.00
2011,09,12,04,01,12.00
2011,09,12,04,02,12.00
2011,09,12,04,03,12.10
2011,09,12,04,04,12.10
2011,09,12,04,05,12.10
2011,09,12,04,06,12.10
2011,09,12,04,07,12.10
2011,09,12,04,08,12.10
2011,09,12,04,09,12.10
2011,09,12,04,10,12.10
2011,09,12,04,11,12.10
2011,09,12,04,12,12.10
2011,09,12,04,13,12.10
2011,09,12,04,14,12.00
2011,09,12,04,15,12.00
2011,09,12,04,16,12.00
2011,09,12,04,17,12.00
2011,09,12,04,18,12.00
2011,09,12,04,19,11.90
2011,09,12,04,20,11.90
2011,09,12,04,21,11.90
2011,09,12,04,22,11.90
2011,09,12,04,23,11.90
2011,09,12,04,24,11.90
2011,09,12,04,25,11.90
2011,09,12,04,26,11.90
2011,09,12,04,27,11.90
2011,09,12,04,28,11.80
2011,09,12,04,29,11.80
2011,09,12,04,30,11.80
2011,09,12,04,31,11.80
2011,09,12,04,32,11.80
2011,09,12,04,33,11.80
2011,09,12,04,34,11.80
2011,09,12,04,35,11.80
2011,09,12,04,36,11.80
2011,09,12,04,37,11.80
2011,09,12,04,38,11.80
2011,09,12,04,39,11.80
2011,09,12,04,40,11.80
2011,09,12,04,41,11.80
2011,09,12,04,42,11.70
2011,09,12,04,43,11.80
2011,09,12,04,44,11.80
2011,09,12,04,45,11.80
2011,09,12,04,46,11.70
2011,09,12,04,47,11.70
2011,09,12,04,48,11.70
2011,09,12,04,49,11.70
2011,09,12,04,50,11.70
2011,09,12,04,51,11.70
2011,09,12,04,52,11.70
2011,09,12,04,53,11.70
2011,09,12,04,54,11.70
2011,09,12,04,55,11.70
2011,09,12,04,56,11.70
2011,09,12,04,57,11.70
2011,09,12,04,58,11.60
2011,09,12,04,59,11.60
2011,09,12,05,00,11.60
2011,09,12,05,01,11.60
2011,09,12,05,02,11.60
2011,09,12,05,03,11.60
2011,09,12,05,04,11.60
2011,09,12,05,05,11.60
2011,09,12,05,06,11.50
2011,09,12,05,07,11.50
2011,09,12,05,08,11.50
2011,09,12,05,09,11.50
2011,09,12,05,10,11.50
2011,09,12,05,11,11.40
2011,09,12,05,12,11.40
2011,09,12,05,13,11.40
2011,09,12,05,14,11.40
2011,09,12,05,15,11.40
2011,09,12,05,16,11.40
2011,09,12,05,17,11.40
2011,09,12,05,18,11.40
2011,09,12,05,19,11.40
2011,09,12,05,20,11.40
2011,09,12,05,21,11.40
2011,09,12,05,22,11.40
2011,09,12,05,23,11.40
2011,09,12,05,24,11.40
2011,09,12,05,25,11.50
2011,09,12,05,26,11.50
2011,09,12,05,27,11.40
2011,09,12,05,28,11.40
2011,09,12,05,29,11.40
2011,09,12,05,30,11.40
2011,09,12,05,31,11.40
2011,09,12,05,32,11.40
2011,09,12,05,33,11.40
2011,09,12,05,34,11.40
2011,09,12,05,35,11.40
2011,09,12,05,36,11.40
2011,09,12,05,37,11.40
2011,09,12,05,38,11.40
2011,09,12,05,39,11.40
2011,09,12,05,40,11.40
2011,09,12,05,41,11.40
2011,09,12,05,42,11.40
2011,09,12,05,43,11.40
2011,09,12,05,44,11.40
2011,09,12,05,45,11.30
2011,09,12,05,46,11.30
2011,09,12,05,47,11.30
2011,09,12,05,48,11.30
2011,09,12,05,49,11.30
2011,09,12,05,50,11.30
2011,09,12,05,51,11.30
2011,09,12,05,52,11.30
2011,09,12,05,53,11.30
2011,09,12,05,54,11.30
2011,09,12,05,55,11.30
2011,09,12,05,56,11.30
2011,09,12,05,57,11.30
2011,09,12,05,58,11.30
2011,09,12,05,59,11.30
2011,09,12,06,00,11.30
2011,09,12,06,01,11.30
2011,09,12,06,02,11.30
2011,09,12,06,03,11.20
2011,09,12,06,04,11.20
2011,09,12,06,05,11.20
2011,09,12,06,06,11.20
2011,09,12,06,07,11.20
2011,09,12,06,08,11.20
2011,09,12,06,09,11.20
2011,09,12,06,10,11.20
2011,09,12,06,11,11.20
2011,09,12,06,12,11.20
2011,09,12,06,13,11.20
2011,09,12,06,14,11.20
2011,09,12,06,15,11.20
2011,09,12,06,16,11.20
2011,09,12,06,17,11.20
2011,09,12,06,18,11.20
2011,09,12,06,19,11.20
2011,09,12,06,20,11.20
2011,09,12,06,21,11.20
2011,09,12,06,22,11.20
2011,09,12,06,23,11.20
2011,09,12,06,24,11.20
2011,09,12,06,25,11.20
2011,09,12,06,26,11.20
2011,09,12,06,27,11.20
2011,09,12,06,28,11.20
2011,09,12,06,29,11.20
2011,09,12,06,30,11.20
2011,09,12,06,31,11.20
2011,09,12,06,32,11.20
2011,09,12,06,33,11.20
2011,09,12,06,34,11.20
2011,09,12,06,35,11.20
2011,09,12,06,36,11.10
2011,09,12,06,37,11.10
2011,09,12,06,38,11.10
2011,09,12,06,39,11.10
2011,09,12,06,40,11.10
2011,09,12,06,41,11.00
2011,09,12,06,42,11.00
2011,09,12,06,43,11.00
2011,09,12,06,44,11.00
2011,09,12,06,45,11.00
2011,09,12,06,46,11.10
2011,09,12,06,47,11.10
2011,09,12,06,48,11.10
2011,09,12,06,49,11.10
2011,09,12,06,50,11.10
2011,09,12,06,51,11.10
2011,09,12,06,52,11.10
2011,09,12,06,53,11.10
2011,09,12,06,54,11.10
2011,09,12,06,55,11.10
2011,09,12,06,56,11.10
2011,09,12,06,57,11.10
2011,09,12,06,58,11.10
2011,09,12,06,59,11.10
2011,09,12,07,00,11.10
2011,09,12,07,01,11.10
2011,09,12,07,02,11.00
2011,09,12,07,03,11.00
2011,09,12,07,04,11.00
2011,09,12,07,05,11.00
2011,09,12,07,06,11.00
2011,09,12,07,07,10.90
2011,09,12,07,08,10.90
2011,09,12,07,09,10.90
2011,09,12,07,10,10.90
2011,09,12,07,11,10.90
2011,09,12,07,12,11.00
2011,09,12,07,13,11.00
2011,09,12,07,14,11.00
2011,09,12,07,15,11.00
2011,09,12,07,16,11.00
2011,09,12,07,17,11.00
2011,09,12,07,18,11.00
2011,09,12,07,19,11.00
2011,09,12,07,20,11.00
2011,09,12,07,21,11.00
2011,09,12,07,22,11.00
2011,09,12,07,23,11.00
2011,09,12,07,24,11.00
2011,09,12,07,25,11.00
2011,09,12,07,26,11.00
2011,09,12,07,27,11.00
2011,09,12,07,28,11.00
2011,09,12,07,29,11.00
2011,09,12,07,30,11.00
2011,09,12,07,31,11.00
2011,09,12,07,32,11.00
2011,09,12,07,33,11.00
2011,09,12,07,34,11.00
2011,09,12,07,35,11.00
2011,09,12,07,36,11.00
2011,09,12,07,37,11.00
2011,09,12,07,38,11.00
2011,09,12,07,39,11.10
2011,09,12,07,40,11.10
2011,09,12,07,41,11.10
2011,09,12,07,42,11.20
2011,09,12,07,43,11.20
2011,09,12,07,44,11.20
2011,09,12,07,45,11.30
2011,09,12,07,46,11.30
2011,09,12,07,47,11.30
2011,09,12,07,48,11.40
2011,09,12,07,49,11.40
2011,09,12,07,50,11.40
2011,09,12,07,51,11.50
2011,09,12,07,52,11.60
2011,09,12,07,53,11.60
2011,09,12,07,54,11.70
2011,09,12,07,55,11.70
2011,09,12,07,56,11.80
2011,09,12,07,57,11.80
2011,09,12,07,58,11.80
2011,09,12,07,59,11.90
2011,09,12,08,00,11.90
2011,09,12,08,01,12.00
2011,09,12,08,02,12.10
2011,09,12,08,03,12.20
2011,09,12,08,04,12.30
2011,09,12,08,05,12.30
2011,09,12,08,06,12.40
2011,09,12,08,07,12.40
2011,09,12,08,08,12.50
2011,09,12,08,09,12.60
2011,09,12,08,10,12.70
2011,09,12,08,11,12.80
2011,09,12,08,12,12.90
2011,09,12,08,13,13.00
2011,09,12,08,14,13.10
2011,09,12,08,15,13.20
2011,09,12,08,16,13.30
2011,09,12,08,17,13.50
2011,09,12,08,18,13.60
2011,09,12,08,19,13.70
2011,09,12,08,20,13.80
2011,09,12,08,21,14.00
2011,09,12,08,22,14.10
2011,09,12,08,23,14.20
2011,09,12,08,24,14.30
2011,09,12,08,25,14.40
2011,09,12,08,26,14.50
2011,09,12,08,27,14.60
2011,09,12,08,28,14.60
2011,09,12,08,29,14.70
2011,09,12,08,30,14.70
2011,09,12,08,31,14.80
2011,09,12,08,32,14.90
2011,09,12,08,33,15.00
2011,09,12,08,34,15.00
2011,09,12,08,35,15.00
2011,09,12,08,36,15.20
2011,09,12,08,37,15.30
2011,09,12,08,38,15.40
2011,09,12,08,39,15.50
2011,09,12,08,40,15.50
2011,09,12,08,41,15.60
2011,09,12,08,42,15.60
2011,09,12,08,43,15.70
2011,09,12,08,44,15.70
2011,09,12,08,45,15.80
2011,09,12,08,46,15.80
2011,09,12,08,47,15.80
2011,09,12,08,48,15.90
2011,09,12,08,49,15.90
2011,09,12,08,50,15.90
2011,09,12,08,51,16.00
2011,09,12,08,52,16.00
2011,09,12,08,53,16.10
2011,09,12,08,54,16.10
2011,09,12,08,55,16.10
2011,09,12,08,56,16.20
2011,09,12,08,57,16.20
2011,09,12,08,58,16.30
2011,09,12,08,59,16.30
2011,09,12,09,00,16.30
2011,09,12,09,01,16.30
2011,09,12,09,02,16.40
2011,09,12,09,03,16.50
2011,09,12,09,04,16.50
2011,09,12,09,05,16.60
2011,09,12,09,06,16.70
2011,09,12,09,07,16.80
2011,09,12,09,08,16.90
2011,09,12,09,09,17.10
2011,09,12,09,10,17.10
2011,09,12,09,11,17.20
2011,09,12,09,12,17.10
2011,09,12,09,13,17.10
2011,09,12,09,14,17.10
2011,09,12,09,15,17.10
2011,09,12,09,16,17.00
2011,09,12,09,17,17.00
2011,09,12,09,18,17.00
2011,09,12,09,19,17.10
2011,09,12,09,20,17.00
2011,09,12,09,21,17.00
2011,09,12,09,22,17.00
2011,09,12,09,23,16.90
2011,09,12,09,24,16.90
2011,09,12,09,25,16.90
2011,09,12,09,26,16.90
2011,09,12,09,27,16.90
2011,09,12,09,28,16.90
2011,09,12,09,29,16.90
2011,09,12,09,30,17.00
2011,09,12,09,31,17.00
2011,09,12,09,32,17.00
2011,09,12,09,33,17.00
2011,09,12,09,34,17.10
2011,09,12,09,35,17.10
2011,09,12,09,36,17.10
2011,09,12,09,37,17.20
2011,09,12,09,38,17.20
2011,09,12,09,39,17.30
2011,09,12,09,40,17.30
2011,09,12,09,41,17.40
2011,09,12,09,42,17.50
2011,09,12,09,43,17.50
2011,09,12,09,44,17.60
2011,09,12,09,45,17.70
2011,09,12,09,46,17.70
2011,09,12,09,47,17.80
2011,09,12,09,48,17.80
2011,09,12,09,49,17.80
2011,09,12,09,50,17.90
2011,09,12,09,51,17.90
2011,09,12,09,52,17.90
2011,09,12,09,53,17.90
2011,09,12,09,54,17.90
2011,09,12,09,55,17.90
2011,09,12,09,56,17.90
2011,09,12,09,57,17.90
2011,09,12,09,58,17.90
2011,09,12,09,59,17.90
2011,09,12,10,00,17.90
2011,09,12,10,01,18.00
2011,09,12,10,02,18.00
2011,09,12,10,03,18.10
2011,09,12,10,04,18.10
2011,09,12,10,05,18.10
2011,09,12,10,06,18.20
2011,09,12,10,07,18.20
2011,09,12,10,08,18.30
2011,09,12,10,09,18.30
2011,09,12,10,10,18.30
2011,09,12,10,11,18.30
2011,09,12,10,12,18.30
2011,09,12,10,13,18.30
2011,09,12,10,14,18.40
2011,09,12,10,15,18.40
2011,09,12,10,16,18.50
2011,09,12,10,17,18.50
2011,09,12,10,18,18.50
2011,09,12,10,19,18.60
2011,09,12,10,20,18.60
2011,09,12,10,21,18.70
2011,09,12,10,22,18.70
2011,09,12,10,23,18.70
2011,09,12,10,24,18.60
2011,09,12,10,25,18.50
2011,09,12,10,26,18.50
2011,09,12,10,27,18.50
2011,09,12,10,28,18.60
2011,09,12,10,29,18.70
2011,09,12,10,30,18.80
2011,09,12,10,31,18.90
2011,09,12,10,32,18.90
2011,09,12,10,33,19.00
2011,09,12,10,34,19.10
2011,09,12,10,35,19.20
2011,09,12,10,36,19.30
2011,09,12,10,37,19.30
2011,09,12,10,38,19.30
2011,09,12,10,39,19.40
2011,09,12,10,40,19.40
2011,09,12,10,41,19.50
2011,09,12,10,42,19.60
2011,09,12,10,43,19.60
2011,09,12,10,44,19.70
2011,09,12,10,45,19.70
2011,09,12,10,46,19.70
2011,09,12,10,47,19.70
2011,09,12,10,48,19.70
2011,09,12,10,49,19.70
2011,09,12,10,50,19.70
2011,09,12,10,51,19.70
2011,09,12,10,52,19.60
2011,09,12,10,53,19.60
2011,09,12,10,54,19.60
2011,09,12,10,55,19.60
2011,09,12,10,56,19.70
2011,09,12,10,57,19.70
2011,09,12,10,58,19.70
2011,09,12,10,59,19.70
2011,09,12,11,00,19.70
2011,09,12,11,01,19.60
2011,09,12,11,02,19.70
2011,09,12,11,03,19.70
2011,09,12,11,04,19.70
2011,09,12,11,05,19.70
2011,09,12,11,06,19.60
2011,09,12,11,07,19.50
2011,09,12,11,08,19.40
2011,09,12,11,09,19.50
2011,09,12,11,10,19.50
2011,09,12,11,11,19.60
2011,09,12,11,12,19.70
2011,09,12,11,13,19.90
2011,09,12,11,14,20.00
2011,09,12,11,15,20.10
2011,09,12,11,16,20.20
2011,09,12,11,17,20.20
2011,09,12,11,18,20.20
2011,09,12,11,19,20.30
2011,09,12,11,20,20.40
2011,09,12,11,21,20.50
2011,09,12,11,22,20.60
2011,09,12,11,23,20.70
2011,09,12,11,24,20.70
2011,09,12,11,25,20.70
2011,09,12,11,26,20.70
2011,09,12,11,27,20.60
2011,09,12,11,28,20.60
2011,09,12,11,29,20.60
2011,09,12,11,30,20.60
2011,09,12,11,31,20.60
2011,09,12,11,32,20.70
2011,09,12,11,33,20.60
2011,09,12,11,34,20.60
2011,09,12,11,35,20.50
2011,09,12,11,36,20.50
2011,09,12,11,37,20.50
2011,09,12,11,38,20.60
2011,09,12,11,39,20.60
2011,09,12,11,40,20.60
2011,09,12,11,41,20.50
2011,09,12,11,42,20.60
2011,09,12,11,43,20.60
2011,09,12,11,44,20.70
2011,09,12,11,45,20.80
2011,09,12,11,46,20.90
2011,09,12,11,47,20.90
2011,09,12,11,48,21.00
2011,09,12,11,49,21.10
2011,09,12,11,50,21.20
2011,09,12,11,51,21.30
2011,09,12,11,52,21.40
2011,09,12,11,53,21.50
2011,09,12,11,54,21.50
2011,09,12,11,55,21.60
2011,09,12,11,56,21.60
2011,09,12,11,57,21.70
2011,09,12,11,58,21.60
2011,09,12,11,59,21.60
2011,09,12,12,00,21.60
2011,09,12,12,01,21.50
2011,09,12,12,02,21.50
2011,09,12,12,03,21.50
2011,09,12,12,04,21.50
2011,09,12,12,05,21.50
2011,09,12,12,06,21.50
2011,09,12,12,07,21.50
2011,09,12,12,08,21.50
2011,09,12,12,09,21.50
2011,09,12,12,10,21.50
2011,09,12,12,11,21.50
2011,09,12,12,12,21.50
2011,09,12,12,13,21.40
2011,09,12,12,14,21.50
2011,09,12,12,15,21.50
2011,09,12,12,16,21.60
2011,09,12,12,17,21.70
2011,09,12,12,18,21.60
2011,09,12,12,19,21.60
2011,09,12,12,20,21.60
2011,09,12,12,21,21.60
2011,09,12,12,22,21.70
2011,09,12,12,23,21.70
2011,09,12,12,24,21.60
2011,09,12,12,25,21.50
2011,09,12,12,26,21.50
2011,09,12,12,27,21.60
2011,09,12,12,28,21.80
2011,09,12,12,29,21.90
2011,09,12,12,30,22.00
2011,09,12,12,31,22.10
2011,09,12,12,32,22.10
2011,09,12,12,33,22.10
2011,09,12,12,34,22.10
2011,09,12,12,35,22.00
2011,09,12,12,36,21.80
2011,09,12,12,37,21.80
2011,09,12,12,38,21.90
2011,09,12,12,39,22.10
2011,09,12,12,40,22.20
2011,09,12,12,41,22.30
2011,09,12,12,42,22.20
2011,09,12,12,43,22.20
2011,09,12,12,44,22.10
2011,09,12,12,45,22.00
2011,09,12,12,46,21.90
2011,09,12,12,47,21.90
2011,09,12,12,48,21.90
2011,09,12,12,49,21.90
2011,09,12,12,50,22.00
2011,09,12,12,51,22.00
2011,09,12,12,52,22.00
2011,09,12,12,53,22.20
2011,09,12,12,54,22.30
2011,09,12,12,55,22.40
2011,09,12,12,56,22.40
2011,09,12,12,57,22.40
2011,09,12,12,58,22.30
2011,09,12,12,59,22.30
2011,09,12,13,00,22.40
2011,09,12,13,01,22.40
2011,09,12,13,02,22.50
2011,09,12,13,03,22.60
2011,09,12,13,04,22.60
2011,09,12,13,05,22.70
2011,09,12,13,06,22.70
2011,09,12,13,07,22.70
2011,09,12,13,08,22.60
2011,09,12,13,09,22.50
2011,09,12,13,10,22.40
2011,09,12,13,11,22.40
2011,09,12,13,12,22.40
2011,09,12,13,13,22.50
2011,09,12,13,14,22.50
2011,09,12,13,15,22.50
2011,09,12,13,16,22.40
2011,09,12,13,17,22.30
2011,09,12,13,18,22.20
2011,09,12,13,19,22.20
2011,09,12,13,20,22.30
2011,09,12,13,21,22.40
2011,09,12,13,22,22.50
2011,09,12,13,23,22.60
2011,09,12,13,24,22.70
2011,09,12,13,25,22.70
2011,09,12,13,26,22.80
2011,09,12,13,27,22.80
2011,09,12,13,28,22.70
2011,09,12,13,29,22.70
2011,09,12,13,30,22.60
2011,09,12,13,31,22.60
2011,09,12,13,32,22.70
2011,09,12,13,33,22.80
2011,09,12,13,34,22.80
2011,09,12,13,35,22.80
2011,09,12,13,36,22.80
2011,09,12,13,37,22.90
2011,09,12,13,38,22.70
2011,09,12,13,39,22.60
2011,09,12,13,40,22.40
2011,09,12,13,41,22.40
2011,09,12,13,42,22.50
2011,09,12,13,43,22.60
2011,09,12,13,44,22.70
2011,09,12,13,45,22.90
2011,09,12,13,46,23.00
2011,09,12,13,47,23.20
2011,09,12,13,48,23.40
2011,09,12,13,49,23.50
2011,09,12,13,50,23.50
2011,09,12,13,51,23.60
2011,09,12,13,52,23.60
2011,09,12,13,53,23.60
2011,09,12,13,54,23.50
2011,09,12,13,55,23.30
2011,09,12,13,56,23.00
2011,09,12,13,57,23.00
2011,09,12,13,58,23.00
2011,09,12,13,59,23.00
2011,09,12,14,00,23.00
2011,09,12,14,01,23.00
2011,09,12,14,02,23.00
2011,09,12,14,03,23.00
2011,09,12,14,04,22.90
2011,09,12,14,05,22.80
2011,09,12,14,06,22.80
2011,09,12,14,07,22.80
2011,09,12,14,08,22.80
2011,09,12,14,09,22.80
2011,09,12,14,10,22.80
2011,09,12,14,11,22.90
2011,09,12,14,12,22.90
2011,09,12,14,13,23.00
2011,09,12,14,14,23.00
2011,09,12,14,15,22.90
2011,09,12,14,16,22.90
2011,09,12,14,17,22.80
2011,09,12,14,18,22.90
2011,09,12,14,19,23.00
2011,09,12,14,20,23.00
2011,09,12,14,21,23.10
2011,09,12,14,22,23.10
2011,09,12,14,23,23.00
2011,09,12,14,24,22.90
2011,09,12,14,25,22.90
2011,09,12,14,26,22.90
2011,09,12,14,27,23.00
2011,09,12,14,28,23.10
2011,09,12,14,29,23.10
2011,09,12,14,30,23.20
2011,09,12,14,31,23.20
2011,09,12,14,32,23.20
2011,09,12,14,33,23.00
2011,09,12,14,34,22.90
2011,09,12,14,35,22.90
2011,09,12,14,36,22.80
2011,09,12,14,37,22.80
2011,09,12,14,38,22.80
2011,09,12,14,39,22.80
2011,09,12,14,40,22.80
2011,09,12,14,41,22.70
2011,09,12,14,42,22.80
2011,09,12,14,43,22.80
2011,09,12,14,44,22.80
2011,09,12,14,45,22.90
2011,09,12,14,46,23.10
2011,09,12,14,47,23.20
2011,09,12,14,48,23.30
2011,09,12,14,49,23.40
2011,09,12,14,50,23.40
2011,09,12,14,51,23.20
2011,09,12,14,52,23.20
2011,09,12,14,53,23.20
2011,09,12,14,54,23.10
2011,09,12,14,55,23.10
2011,09,12,14,56,23.00
2011,09,12,14,57,23.00
2011,09,12,14,58,23.10
2011,09,12,14,59,23.10
2011,09,12,15,00,23.10
2011,09,12,15,01,23.10
2011,09,12,15,02,23.00
2011,09,12,15,03,23.10
2011,09,12,15,04,23.20
2011,09,12,15,05,23.20
2011,09,12,15,06,23.30
2011,09,12,15,07,23.40
2011,09,12,15,08,23.50
2011,09,12,15,09,23.60
2011,09,12,15,10,23.60
2011,09,12,15,11,23.70
2011,09,12,15,12,23.80
2011,09,12,15,13,23.70
2011,09,12,15,14,23.60
2011,09,12,15,15,23.50
2011,09,12,15,16,23.50
2011,09,12,15,17,23.50
2011,09,12,15,18,23.50
2011,09,12,15,19,23.50
2011,09,12,15,20,23.40
2011,09,12,15,21,23.40
2011,09,12,15,22,23.40
2011,09,12,15,23,23.30
2011,09,12,15,24,23.30
2011,09,12,15,25,23.30
2011,09,12,15,26,23.30
2011,09,12,15,27,23.30
2011,09,12,15,28,23.20
2011,09,12,15,29,23.30
2011,09,12,15,30,23.30
2011,09,12,15,31,23.40
2011,09,12,15,32,23.40
2011,09,12,15,33,23.50
2011,09,12,15,34,23.40
2011,09,12,15,35,23.40
2011,09,12,15,36,23.50
2011,09,12,15,37,23.50
2011,09,12,15,38,23.50
2011,09,12,15,39,23.40
2011,09,12,15,40,23.30
2011,09,12,15,41,23.20
2011,09,12,15,42,23.30
2011,09,12,15,43,23.30
2011,09,12,15,44,23.30
2011,09,12,15,45,23.30
2011,09,12,15,46,23.40
2011,09,12,15,47,23.40
2011,09,12,15,48,23.30
2011,09,12,15,49,23.20
2011,09,12,15,50,23.10
2011,09,12,15,51,23.10
2011,09,12,15,52,23.10
2011,09,12,15,53,23.20
2011,09,12,15,54,23.30
2011,09,12,15,55,23.40
2011,09,12,15,56,23.40
2011,09,12,15,57,23.40
2011,09,12,15,58,23.40
2011,09,12,15,59,23.40
2011,09,12,16,00,23.50
2011,09,12,16,01,23.50
2011,09,12,16,02,23.40
2011,09,12,16,03,23.30
2011,09,12,16,04,23.20
2011,09,12,16,05,23.20
2011,09,12,16,06,23.20
2011,09,12,16,07,23.30
2011,09,12,16,08,23.40
2011,09,12,16,09,23.50
2011,09,12,16,10,23.50
2011,09,12,16,11,23.60
2011,09,12,16,12,23.50
2011,09,12,16,13,23.50
2011,09,12,16,14,23.60
2011,09,12,16,15,23.60
2011,09,12,16,16,23.70
2011,09,12,16,17,23.70
2011,09,12,16,18,23.70
2011,09,12,16,19,23.60
2011,09,12,16,20,23.60
2011,09,12,16,21,23.70
2011,09,12,16,22,23.80
2011,09,12,16,23,23.80
2011,09,12,16,24,23.80
2011,09,12,16,25,23.70
2011,09,12,16,26,23.70
2011,09,12,16,27,23.70
2011,09,12,16,28,23.60
2011,09,12,16,29,23.60
2011,09,12,16,30,23.60
2011,09,12,16,31,23.60
2011,09,12,16,32,23.60
2011,09,12,16,33,23.70
2011,09,12,16,34,23.70
2011,09,12,16,35,23.70
2011,09,12,16,36,23.70
2011,09,12,16,37,23.60
2011,09,12,16,38,23.60
2011,09,12,16,39,23.60
2011,09,12,16,40,23.70
2011,09,12,16,41,23.70
2011,09,12,16,42,23.60
2011,09,12,16,43,23.60
2011,09,12,16,44,23.60
2011,09,12,16,45,23.60
2011,09,12,16,46,23.70
2011,09,12,16,47,23.80
2011,09,12,16,48,23.80
2011,09,12,16,49,23.90
2011,09,12,16,50,23.90
2011,09,12,16,51,23.80
2011,09,12,16,52,23.80
2011,09,12,16,53,23.80
2011,09,12,16,54,23.80
2011,09,12,16,55,23.80
2011,09,12,16,56,23.90
2011,09,12,16,57,23.90
2011,09,12,16,58,23.90
2011,09,12,16,59,23.90
2011,09,12,17,00,23.90
2011,09,12,17,01,23.90
2011,09,12,17,02,23.90
2011,09,12,17,03,23.90
2011,09,12,17,04,23.90
2011,09,12,17,05,23.80
2011,09,12,17,06,23.70
2011,09,12,17,07,23.70
2011,09,12,17,08,23.60
2011,09,12,17,09,23.60
2011,09,12,17,10,23.70
2011,09,12,17,11,23.70
2011,09,12,17,12,23.70
2011,09,12,17,13,23.80
2011,09,12,17,14,23.80
2011,09,12,17,15,23.80
2011,09,12,17,16,23.80
2011,09,12,17,17,23.80
2011,09,12,17,18,23.80
2011,09,12,17,19,23.70